This demonstration page uses our WeatherBlox Daily Observations layout. Learn more.

Left ArrowRight Arrow

Hourly Observations for December 9, 2015

Temp ( °F °C ) Dew Point ( °F °C ) Humidity (%) Winds ( mph kmh ) Pressure ( in mb ) Visibility ( mi km ) Precip ( " mm )
12:58 am 00:58 Clear 37 2.5 34 1.2 91 91 NW 6 9 29.83 1010 10 16 0.00 0.00
1:58 am 01:58 Clear 36 2.2 34 1 92 92 ESE 3 6 29.80 1009 10 16 0.00 0.00
2:58 am 02:58 Clear 36 2.4 34 1.2 92 92 SW 3 6 29.83 1010 10 16 0.00 0.00
3:58 am 03:58 Clear 37 2.7 35 1.8 94 94 W 7 11 29.84 1011 10 16 0.00 0.00
4:58 am 04:58 Clear 35 1.9 35 1.4 97 97 W 1 2 29.85 1011 10 16 0.00 0.00
5:58 am 05:58 Clear 34 1.3 34 1.1 99 99 SW 3 6 29.87 1012 10 16 0.00 0.00
6:58 am 06:58 Mostly Cloudy 29 -1.9 28 -2 99 99 Calm 29.87 1012 10 16 0.00 0.00
7:58 am 07:58 Sunny 30 -1.3 29 -1.4 99 99 S 2 4 29.87 1011 10 16 0.00 0.00
8:58 am 08:58 Sunny 33 0.6 33 0.4 99 99 Calm 29.87 1011 10 16 0.00 0.00
9:58 am 09:58 Sunny 38 3.6 37 2.6 93 93 S 5 7 29.87 1012 10 16 0.00 0.00
10:58 am 10:58 Mostly Sunny 42 5.4 38 3.6 88 88 SSE 5 7 29.84 1011 10 16 0.00 0.00
11:58 am 11:58 Sunny 46 7.5 40 4.7 83 83 SSE 8 13 29.80 1009 10 16 0.00 0.00
12:58 pm 12:58 Sunny 52 10.9 41 5.1 68 68 SSE 8 13 29.75 1008 10 16 0.00 0.00
1:02 pm 13:02 Sunny 52 11 41 5 67 67 SSE 8 13 29.74 1007 10 16 0.00 0.00
1:58 pm 13:58 Sunny 56 13.1 40 4.7 57 57 S 10 17 29.71 1006 10 16 0.00 0.00
2:58 pm 14:58 Sunny 58 14.7 40 4.5 51 51 S 13 20 29.68 1005 10 16 0.00 0.00
3:58 pm 15:58 Sunny 58 14.7 40 4.4 50 50 S 12 19 29.66 1004 10 16 0.00 0.00
4:58 pm 16:58 Clear 50 9.8 38 3.6 66 66 SSE 7 11 29.66 1004 10 16 0.00 0.00
5:58 pm 17:58 Clear 43 5.9 37 2.9 81 81 ESE 7 11 29.65 1004 10 16 0.00 0.00
6:58 pm 18:58 Clear 41 4.9 37 2.6 85 85 ESE 6 9 29.64 1004 10 16 0.00 0.00
7:58 pm 19:58 Clear 45 7.4 39 4 79 79 ESE 7 11 29.61 1003 10 16 0.00 0.00
8:58 pm 20:58 Clear 44 6.7 38 3.4 80 80 ESE 6 9 29.59 1002 10 16 0.00 0.00
9:58 pm 21:58 Clear 43 6 38 3.4 84 84 S 8 13 29.56 1001 10 16 0.00 0.00
10:58 pm 22:58 Mostly Clear 46 7.5 38 3.6 77 77 ESE 6 9 29.54 1000 10 16 0.00 0.00
11:58 pm 23:58 Partly Cloudy 43 6 38 3.6 85 85 E 6 9 29.52 1000 10 16 0.00 0.00

Powered by AerisWeather